Weather in Boston

United States     42°21′21″N   71°04′25″W
temp.,
°C
wind,
m/s
gust,
m/s
humid.,
%
clouds,
%
prec.,
mm/h
press.,
hPa
HPBL,
m
23 may, mon
mon2323:00+20w3993100 1.8 1015359
02:00+20wnw399586 1.8 1014338
05:00+16nw51276100 0.0 1018452
08:00+16nnw4860100 0.0 1021535
11:00+18ne455381 0.0 1022953
14:00+17ene435793 0.0 1022688
17:00+16ene345099 0.0 1022445
20:00+15e2456100 0.0 1023162
24 may, tue
tue2423:00+14sse1158100 0.0 102416
02:00+14n1158100 0.0 102519
05:00+13nne3665100 0.0 1025272
08:00+13ne4670100 0.0 1026378
11:00+15ene454837 0.0 1028815
14:00+16ene55470 0.0 1027841
17:00+15ene44565 0.0 1027662
20:00+12se3676100 0.0 1027311
25 may, wed
wed2523:00+11s127631 0.0 102891
02:00+10sw12785 0.0 102770
05:00+10sw1276100 0.0 102763
08:00+14ssw235765 0.0 1028291
11:00+19ssw12455 0.0 1028728
14:00+22s134339 0.0 10261364
17:00+21sw1346100 0.0 10251289
20:00+16ssw5105555 0.0 1027256
26 may, thu
thu2623:00+13ssw4105887 0.0 1027246
02:00+12sw3959100 0.0 1027250
05:00+11sw3964100 0.0 1027269
08:00+14ssw4861100 0.0 1027376
11:00+20ssw5944100 0.0 1025904
14:00+21ssw71143100 0.0 10231073
17:00+20ssw7115349 0.0 1021882
20:00+17ssw613725 0.0 1020716
27 may, fri
fri2723:00+16sw5158322 0.0 1019607
02:00+17ssw51586100 0.0 1016640
05:00+17sw4119388 0.0 1015467
08:00+18sw5118399 0.0 1014473
11:00+24wsw6106179 0.0 1013877
14:00+27wsw51050100 0.0 10111384
17:00+28sw61051100 0.0 10101312
20:00+23ssw6147346 0.1 1010636